Powrót do katalogu

CZ-6A DEB

AktywnyPO
NORAD 60848·DEBRIS·🇨🇳 China

Wystrzelony Aug 6, 2024 z Taiyuan Satellite Launch Center

Loading…

Następne Przeloty (najbliższe 24 godziny)

TLE

ŚwieżeSource: Space-Track

Epoka: Sep 14, 2026, 04:42 UTC

1 60848U 24140JB  26257.19629955  .00006083  00000-0  82889-3 0  9990
2 60848  88.7270 232.0627 0122668 194.3792 165.3928 14.73415613110115

Śledź CZ-6A DEB w czasie rzeczywistym z AllMySat

Download on the App Store